OPS 4682 DEB, 51501

Orbit data source: Space-Track

OPS 4682 DEB, 51501 is space debris in LEO originally from a launch on Sat, 03 Apr 1965 UTC launched from the Air Force Western Test Range (AFWTR). Debris objects in space refer to the collection of defunct objects orbiting the Earth. Examples of debris include non-operational satellites, rocket bodies, and fragments generated from explosions, collisions, or faulty payload assembly.

Loading next visibility...
Identifier
51501, 1965-027GM
Orbit
LEO
Country
Flag of USUS
Related business
Manufacturer
Unknown
Mission
Spacecraft
Bus & Motor
Unknown
Mass
Unknown
Launch date (UTC)
1965-04-03 (61 years ago)
Launch vehicle
Unknown
Launch site
Air Force Western Test Range (AFWTR)
Object type
Payload
Rocket body
Debris
Shape & HBR
Unknown shape, 0.1 m
Radar Cross Section
Medium (>0.1 m² and <1 m²)

Expand to show TLE details & history
Last TLE update: 1 day ago

TLE from 1 day ago
0 OPS 4682 DEB
1 51501U 65027GM  26254.40387952  .00000545  00000-0  15597-2 0  9992
2 51501  90.3526  46.9951 0023177 101.4817 258.8915 13.09331903540037
Epoch: 2026-09-11T09:41Z
TLE epoch observation values (Epoch: 2026-09-11T09:41:35.190Z)
Latitude
-0.00001°
Longitude
-88.82925°
Altitude
1,232.074 km
Speed
7.237 km/s
True Right ascension
03h 07m 58s
True Declination
0° 00' 00"
Sunlit
Object was in daylight at epoch
Visualization orbit readout
Latitude
Unknown
Longitude
Unknown
Altitude
Unknown
Speed
Unknown
Apparent Right ascension
Unknown
Apparent Declination
Unknown
Sunlit
N/A
Visualization observer readout
Local Sidereal Time
10:14:10
Azimuth
Unknown
Elevation
Unknown
Doppler factor
Unknown
Orbital elements
Apogee altitude
1,240.471 km
Perigee altitude
1,205.238 km
Semi-major axis
7,600.991 km
Eccentricity
0.00232
Inclination
90.3526°
RAAN
46.9951°
Arg. of periapsis
101.4817°
True anomaly
258.63103°
Mean anomaly
258.8915°
Eccentric anomaly
258.76125°
Mean motion
3.2752 °/min
Orbital period
109.92 mins
BSTAR
0.0015597
Loading maneuver chart data...
Computing Atmospheric mass density...
Loading historical data...
Loading historical data...
Loading historical data...
Loading historical data...
Loading historical data...
Loading historical data...
Loading historical data...

Documentation

Showing up to 5 results
|